Location: LDNL
(36.4545°S, 141.6685°E)
Time: 10:54:34
(UTC+10:00)

Explorer 7 - Pass Details

Date: 12 August 2022
Orbit: 482 x 668 km, 50.3° (Epoch: 26 September)

Event Time Altitude Azimuth Distance (km) Brightness Sun altitude
Rises 01:58:49 0° 235° (SW) 2,818 - -62.2°
Reaches altitude 10° 02:01:12 10° 240° (WSW) 1,879 - -61.8°
Maximum altitude 02:05:22 53° 316° (NW) 675 - -61.2°
Drops below altitude 10° 02:09:15 10° 33° (NNE) 1,753 - -60.6°
Sets 02:11:24 0° 38° (NE) 2,607 - -60.3°
